Regional Weather Roundup
Issued by NWS Cleveland, OH

Home | Current Version | Previous Version | Graphics & Text | Print | Product List | Glossary On
Versions: 1 2 3 4 5 6 7 8 9 10 11 12 13 14 15 16 17 18 19 20 21 22 23 24 25 26 27 28 29 30 31 32 33 34 35 36 37 38 39 40 41 42 43 44 45 46 47 48 49 50
000
ASUS41 KCLE 220400
RWRCLE
OHIO REGIONAL WEATHER ROUNDUP
NATIONAL WEATHER SERVICE WILMINGTON, OH
1200 AM EDT FRI SEP 22 2017

NOTE: "FAIR" INDICATES FEW OR NO CLOUDS BELOW 12,000 FEET WITH NO
SIGNIFICANT WEATHER AND/OR OBSTRUCTIONS TO VISIBILITY.

OHZ001>008-015>018-024>027-034-035-043-044-220500-
   NORTHWEST OHIO

CITY           SKY/WX    TMP DP  RH WIND       PRES   REMARKS
DEFIANCE       FAIR      74  69  85 NE6       30.08R
FINDLAY        FAIR      77  68  73 SE6       30.07S
TOLEDO EXPRESS FAIR      74  71  91 E3        30.08S
TOLEDO EXEC    FAIR      73  69  87 NE5       30.09S
LIMA           FAIR      68  67  96 CALM      30.08S
$$

OHZ009>014-019>023-028>033-038-089-220500-
   NORTHEAST OHIO

CITY           SKY/WX    TMP DP  RH WIND       PRES   REMARKS
CLE-HOPKINS    FAIR      74  64  71 SE5       30.11S
CLE-LAKEFRONT  FAIR      75  61  61 SE5       30.08S
CUY CO. ARPT   NOT AVBL
LORAIN-ELYRIA  FAIR      66  60  81 CALM      30.10S
ASHTABULA      FAIR      64  60  87 E3        30.12S
AKRON-CANTON   FAIR      71  62  73 E7        30.11F
WOOSTER        NOT AVBL
MANSFIELD      FAIR      72  64  76 SE6       30.12S
YOUNGSTOWN     FAIR      67  62  84 E7        30.12S
$$

OHZ042-051>053-060>062-070>072-077>081-220500-
  SOUTHWEST OHIO

CITY           SKY/WX    TMP DP  RH WIND       PRES   REMARKS
CINC-COVINGTON FAIR      75  72  90 CALM      30.08S
CINC-LUNKEN    FAIR      71  71 100 CALM      30.08R FOG
HAMILTON       FAIR      70  70 100 CALM      30.08S
DAYTON         NOT AVBL
WRIGHT-PAT AFB PTCLDY    72  71  97 N3        30.09R
DAYTON GENERAL MOCLDY    75  69  81 SE5       30.08S
WILMINGTON     FAIR      71  67  87 SE5       30.10R
$$

OHZ036-037-039>041-045>050-054>059-063>069-073>076-082>088-220500-
  CENTRAL AND SOUTHEAST OHIO

CITY           SKY/WX    TMP DP  RH WIND       PRES   REMARKS
COLUMBUS       CLOUDY    76  66  71 CALM      30.09R
OSU AIRPORT    FAIR      73  68  84 CALM      30.10R
BOLTON FIELD   NOT AVBL
RICKENBACK AFB NOT AVBL
NEWARK         FAIR      68  66  93 CALM      30.10R
MARION         FAIR      72  65  78 CALM      30.10S
LANCASTER      FAIR      65  65 100 CALM      30.10S
ZANESVILLE     FAIR      68  65  90 CALM      30.10S
NEW PHILLY     FAIR      65  65 100 CALM      30.11S FOG
$$



USA.gov is the U.S. government's official web portal to all federal, state and local government web resources and services.